Time,TemperatureF,DewpointF,PressureIn,WindDirection,WindDirectionDegrees,WindSpeedMPH,WindSpeedGustMPH,Humidity,HourlyPrecipIn,Conditions,Clouds,dailyrainin,SoftwareType,DateUTC
2013-03-09 00:00:00,37.8,31.9,29.89,South,178,6.0,11.0,79,0.00,,---,0.00,VWS V14.01,2013-03-09 07:00:00,
2013-03-09 00:05:00,37.3,32.0,29.89,SSE,165,12.0,12.0,81,0.00,,---,0.00,VWS V14.01,2013-03-09 07:05:00,
2013-03-09 00:10:00,37.0,32.0,29.90,South,172,6.0,9.0,82,0.00,,---,0.00,VWS V14.01,2013-03-09 07:10:00,
2013-03-09 00:15:00,36.8,32.1,29.90,South,191,4.0,6.0,83,0.00,,---,0.00,VWS V14.01,2013-03-09 07:15:00,
2013-03-09 00:20:00,36.5,32.1,29.89,SSW,194,2.0,9.0,84,0.00,,---,0.00,VWS V14.01,2013-03-09 07:20:00,
2013-03-09 00:25:00,36.4,32.0,29.89,SSW,201,9.0,9.0,84,0.00,,---,0.00,VWS V14.01,2013-03-09 07:25:00,
2013-03-09 00:30:00,36.7,32.0,29.89,SSW,205,7.0,10.0,83,0.00,,---,0.00,VWS V14.01,2013-03-09 07:30:00,
2013-03-09 00:35:00,36.6,31.9,29.89,South,184,10.0,13.0,83,0.00,,---,0.00,VWS V14.01,2013-03-09 07:35:00,
2013-03-09 00:40:00,36.4,31.7,29.90,South,191,4.0,9.0,83,0.00,,---,0.00,VWS V14.01,2013-03-09 07:40:00,
2013-03-09 00:45:00,36.2,31.8,29.90,South,191,5.0,8.0,84,0.00,,---,0.00,VWS V14.01,2013-03-09 07:45:00,
2013-03-09 00:50:00,36.0,31.6,29.91,South,184,4.0,6.0,84,0.00,,---,0.00,VWS V14.01,2013-03-09 07:50:00,
2013-03-09 00:55:00,35.9,31.5,29.90,SSW,203,5.0,5.0,84,0.00,,---,0.00,VWS V14.01,2013-03-09 07:55:00,
2013-03-09 01:00:00,36.0,31.6,29.90,SSW,195,5.0,12.0,84,0.00,,---,0.00,VWS V14.01,2013-03-09 08:00:00,
2013-03-09 01:05:00,36.8,31.8,29.90,SSW,192,6.0,7.0,82,0.00,,---,0.00,VWS V14.01,2013-03-09 08:05:00,
2013-03-09 01:10:00,36.8,31.5,29.90,SSW,203,3.0,5.0,81,0.00,,---,0.00,VWS V14.01,2013-03-09 08:10:00,
2013-03-09 01:15:00,36.7,31.4,29.90,SSW,199,0.0,3.0,81,0.00,,---,0.00,VWS V14.01,2013-03-09 08:15:00,
2013-03-09 01:20:00,36.5,31.2,29.91,SSW,198,2.0,2.0,81,0.00,,---,0.00,VWS V14.01,2013-03-09 08:20:00,
2013-03-09 01:25:00,36.6,31.3,29.91,South,172,0.0,0.0,81,0.00,,---,0.00,VWS V14.01,2013-03-09 08:25:00,
2013-03-09 01:30:00,36.5,31.2,29.91,SE,132,3.0,4.0,81,0.00,,---,0.00,VWS V14.01,2013-03-09 08:30:00,
2013-03-09 01:35:00,36.0,30.8,29.91,ESE,105,4.0,5.0,81,0.00,,---,0.00,VWS V14.01,2013-03-09 08:35:00,
2013-03-09 01:40:00,35.5,30.9,29.91,East,88,7.0,9.0,83,0.00,,---,0.00,VWS V14.01,2013-03-09 08:40:00,
2013-03-09 01:45:00,35.8,31.5,29.91,East,100,4.0,8.0,84,0.00,,---,0.00,VWS V14.01,2013-03-09 08:45:00,
2013-03-09 01:50:00,36.8,31.2,29.91,East,98,4.0,5.0,80,0.00,,---,0.00,VWS V14.01,2013-03-09 08:50:00,
2013-03-09 01:55:00,37.2,31.0,29.91,SSE,151,4.0,6.0,78,0.00,,---,0.00,VWS V14.01,2013-03-09 08:55:00,
2013-03-09 02:00:00,37.5,30.6,29.91,SE,136,2.0,6.0,76,0.00,,---,0.00,VWS V14.01,2013-03-09 09:00:00,
2013-03-09 02:05:00,37.4,30.9,29.91,SE,137,0.0,0.0,77,0.00,,---,0.00,VWS V14.01,2013-03-09 09:05:00,
2013-03-09 02:10:00,37.1,30.6,29.92,SE,140,0.0,0.0,77,0.00,,---,0.00,VWS V14.01,2013-03-09 09:10:00,
2013-03-09 02:15:00,36.9,30.4,29.91,SE,141,0.0,0.0,77,0.00,,---,0.00,VWS V14.01,2013-03-09 09:15:00,
2013-03-09 02:20:00,36.7,30.5,29.91,SE,142,0.0,0.0,78,0.00,,---,0.00,VWS V14.01,2013-03-09 09:20:00,
2013-03-09 02:25:00,36.3,30.1,29.91,SE,141,0.0,0.0,78,0.00,,---,0.00,VWS V14.01,2013-03-09 09:25:00,
2013-03-09 02:30:00,36.1,29.9,29.91,SW,234,4.0,4.0,78,0.00,,---,0.00,VWS V14.01,2013-03-09 09:30:00,
2013-03-09 02:35:00,35.9,29.7,29.90,WSW,240,2.0,3.0,78,0.00,,---,0.00,VWS V14.01,2013-03-09 09:35:00,
2013-03-09 02:40:00,35.6,29.4,29.90,SSW,205,3.0,6.0,78,0.00,,---,0.00,VWS V14.01,2013-03-09 09:40:00,
2013-03-09 02:45:00,35.5,29.3,29.90,SSW,213,5.0,10.0,78,0.00,,---,0.00,VWS V14.01,2013-03-09 09:45:00,
2013-03-09 02:50:00,36.1,29.6,29.90,SW,225,13.0,13.0,77,0.00,,---,0.00,VWS V14.01,2013-03-09 09:50:00,
2013-03-09 02:55:00,36.9,29.4,29.90,SW,218,6.0,9.0,74,0.00,,---,0.00,VWS V14.01,2013-03-09 09:55:00,
2013-03-09 03:00:00,37.0,29.2,29.89,WSW,237,7.0,11.0,73,0.00,,---,0.00,VWS V14.01,2013-03-09 10:00:00,
2013-03-09 03:05:00,37.1,28.9,29.89,WSW,243,12.0,16.0,72,0.00,,---,0.00,VWS V14.01,2013-03-09 10:05:00,
2013-03-09 03:10:00,37.3,28.8,29.90,SW,221,11.0,12.0,71,0.00,,---,0.00,VWS V14.01,2013-03-09 10:10:00,
2013-03-09 03:15:00,37.3,28.8,29.90,SW,214,9.0,10.0,71,0.00,,---,0.00,VWS V14.01,2013-03-09 10:15:00,
2013-03-09 03:20:00,37.1,28.2,29.90,SW,229,7.0,10.0,70,0.00,,---,0.00,VWS V14.01,2013-03-09 10:20:00,
2013-03-09 03:25:00,37.2,28.3,29.90,WSW,238,7.0,10.0,70,0.00,,---,0.00,VWS V14.01,2013-03-09 10:25:00,
2013-03-09 03:30:00,37.3,28.4,29.90,SW,229,4.0,9.0,70,0.00,,---,0.00,VWS V14.01,2013-03-09 10:30:00,
2013-03-09 03:35:00,37.1,28.6,29.90,SW,230,5.0,8.0,71,0.00,,---,0.00,VWS V14.01,2013-03-09 10:35:00,
2013-03-09 03:40:00,36.9,28.4,29.90,SW,219,5.0,5.0,71,0.00,,---,0.00,VWS V14.01,2013-03-09 10:40:00,
2013-03-09 03:45:00,37.0,28.1,29.89,SW,221,6.0,10.0,70,0.00,,---,0.00,VWS V14.01,2013-03-09 10:45:00,
2013-03-09 03:50:00,37.2,28.0,29.89,SW,221,9.0,14.0,69,0.00,,---,0.00,VWS V14.01,2013-03-09 10:50:00,
2013-03-09 03:55:00,37.5,27.9,29.90,SW,236,4.0,7.0,68,0.00,,---,0.00,VWS V14.01,2013-03-09 10:55:00,
2013-03-09 04:00:00,37.2,28.0,29.90,SW,217,3.0,4.0,69,0.00,,---,0.00,VWS V14.01,2013-03-09 11:00:00,
2013-03-09 04:05:00,37.0,28.1,29.90,SSW,208,5.0,6.0,70,0.00,,---,0.00,VWS V14.01,2013-03-09 11:05:00,
2013-03-09 04:10:00,36.8,28.0,29.90,SSW,203,5.0,9.0,70,0.00,,---,0.00,VWS V14.01,2013-03-09 11:10:00,
2013-03-09 04:15:00,36.7,28.2,29.90,SSW,199,1.0,3.0,71,0.00,,---,0.00,VWS V14.01,2013-03-09 11:15:00,
2013-03-09 04:19:00,36.6,28.1,29.90,SSW,209,3.0,4.0,71,0.00,,---,0.00,VWS V14.01,2013-03-09 11:19:00,
2013-03-09 04:20:00,36.6,28.1,29.91,SSW,209,4.0,9.0,71,0.00,,---,0.00,VWS V14.01,2013-03-09 11:20:00,
2013-03-09 04:24:00,36.4,28.2,29.91,SSW,204,4.0,6.0,72,0.00,,---,0.00,VWS V14.01,2013-03-09 11:24:00,
2013-03-09 04:25:00,36.4,28.2,29.91,South,191,4.0,5.0,72,0.00,,---,0.00,VWS V14.01,2013-03-09 11:25:00,
2013-03-09 04:29:00,36.1,28.0,29.91,SSW,213,3.0,7.0,72,0.00,,---,0.00,VWS V14.01,2013-03-09 11:29:00,
2013-03-09 04:30:00,36.1,28.3,29.90,SSW,200,3.0,9.0,73,0.00,,---,0.00,VWS V14.01,2013-03-09 11:30:00,
2013-03-09 04:34:00,36.3,28.1,29.91,South,180,10.0,10.0,72,0.00,,---,0.00,VWS V14.01,2013-03-09 11:34:00,
2013-03-09 04:35:00,36.2,28.1,29.91,SW,215,6.0,10.0,72,0.00,,---,0.00,VWS V14.01,2013-03-09 11:35:00,
2013-03-09 04:39:00,36.7,27.5,29.91,SSW,199,7.0,12.0,69,0.00,,---,0.00,VWS V14.01,2013-03-09 11:39:00,
2013-03-09 04:40:00,36.6,27.8,29.91,SW,215,6.0,13.0,70,0.00,,---,0.00,VWS V14.01,2013-03-09 11:40:00,
2013-03-09 04:44:00,36.9,27.7,29.91,South,173,3.0,8.0,69,0.00,,---,0.00,VWS V14.01,2013-03-09 11:44:00,
2013-03-09 04:45:00,37.0,27.8,29.91,SW,214,7.0,12.0,69,0.00,,---,0.00,VWS V14.01,2013-03-09 11:45:00,
2013-03-09 04:49:00,36.6,27.8,29.91,SW,217,6.0,7.0,70,0.00,,---,0.00,VWS V14.01,2013-03-09 11:49:00,
2013-03-09 04:50:00,36.7,27.5,29.91,SSW,211,5.0,9.0,69,0.00,,---,0.00,VWS V14.01,2013-03-09 11:50:00,
2013-03-09 04:54:00,36.1,27.6,29.91,SW,224,6.0,6.0,71,0.00,,---,0.00,VWS V14.01,2013-03-09 11:54:00,
2013-03-09 04:55:00,36.1,27.6,29.91,SW,221,5.0,8.0,71,0.00,,---,0.00,VWS V14.01,2013-03-09 11:55:00,
2013-03-09 04:59:00,35.8,27.7,29.91,SW,219,5.0,6.0,72,0.00,,---,0.00,VWS V14.01,2013-03-09 11:59:00,
2013-03-09 05:00:00,35.9,27.8,29.91,SW,217,4.0,6.0,72,0.00,,---,0.00,VWS V14.01,2013-03-09 12:00:00,
2013-03-09 05:04:00,35.8,27.3,29.91,SW,215,7.0,12.0,71,0.00,,---,0.00,VWS V14.01,2013-03-09 12:04:00,
2013-03-09 05:05:00,35.7,27.6,29.91,SW,227,3.0,11.0,72,0.00,,---,0.00,VWS V14.01,2013-03-09 12:05:00,
2013-03-09 05:09:00,36.0,27.5,29.91,SSW,208,6.0,9.0,71,0.00,,---,0.00,VWS V14.01,2013-03-09 12:09:00,
2013-03-09 05:10:00,36.0,27.2,29.91,SW,223,6.0,13.0,70,0.00,,---,0.00,VWS V14.01,2013-03-09 12:10:00,
2013-03-09 05:14:00,35.8,27.3,29.91,SW,217,6.0,10.0,71,0.00,,---,0.00,VWS V14.01,2013-03-09 12:14:00,
2013-03-09 05:15:00,35.9,27.4,29.91,SW,218,6.0,12.0,71,0.00,,---,0.00,VWS V14.01,2013-03-09 12:15:00,
2013-03-09 05:19:00,35.7,27.2,29.91,SW,230,4.0,11.0,71,0.00,,---,0.00,VWS V14.01,2013-03-09 12:19:00,
2013-03-09 05:20:00,35.7,27.2,29.91,SW,225,5.0,11.0,71,0.00,,---,0.00,VWS V14.01,2013-03-09 12:20:00,
2013-03-09 05:24:00,35.6,27.1,29.91,SW,222,8.0,11.0,71,0.00,,---,0.00,VWS V14.01,2013-03-09 12:24:00,
2013-03-09 05:25:00,35.6,27.1,29.91,SW,233,5.0,11.0,71,0.00,,---,0.00,VWS V14.01,2013-03-09 12:25:00,
2013-03-09 05:29:00,35.7,26.9,29.91,SW,229,4.0,10.0,70,0.00,,---,0.00,VWS V14.01,2013-03-09 12:29:00,
2013-03-09 05:30:00,35.6,26.8,29.91,SW,228,10.0,13.0,70,0.00,,---,0.00,VWS V14.01,2013-03-09 12:30:00,
2013-03-09 05:34:00,35.7,26.9,29.91,WSW,237,6.0,10.0,70,0.00,,---,0.00,VWS V14.01,2013-03-09 12:34:00,
2013-03-09 05:35:00,35.8,27.0,29.91,SW,225,7.0,11.0,70,0.00,,---,0.00,VWS V14.01,2013-03-09 12:35:00,
2013-03-09 05:39:00,35.7,26.9,29.92,WSW,241,11.0,11.0,70,0.00,,---,0.00,VWS V14.01,2013-03-09 12:39:00,
2013-03-09 05:40:00,35.7,26.9,29.91,SW,226,5.0,13.0,70,0.00,,---,0.00,VWS V14.01,2013-03-09 12:40:00,
2013-03-09 05:44:00,35.7,26.9,29.92,SW,236,7.0,10.0,70,0.00,,---,0.00,VWS V14.01,2013-03-09 12:44:00,
2013-03-09 05:45:00,35.7,26.9,29.92,SW,236,8.0,17.0,70,0.00,,---,0.00,VWS V14.01,2013-03-09 12:45:00,
2013-03-09 05:49:00,35.4,27.0,29.92,SW,236,6.0,11.0,71,0.00,,---,0.00,VWS V14.01,2013-03-09 12:49:00,
2013-03-09 05:50:00,35.5,27.0,29.92,SW,225,5.0,12.0,71,0.00,,---,0.00,VWS V14.01,2013-03-09 12:50:00,
2013-03-09 05:54:00,35.1,27.0,29.92,SW,232,3.0,4.0,72,0.00,,---,0.00,VWS V14.01,2013-03-09 12:54:00,
2013-03-09 05:55:00,35.2,26.8,29.93,SW,232,4.0,11.0,71,0.00,,---,0.00,VWS V14.01,2013-03-09 12:55:00,
2013-03-09 05:59:00,35.0,27.2,29.93,SW,236,8.0,10.0,73,0.00,,---,0.00,VWS V14.01,2013-03-09 12:59:00,
2013-03-09 06:00:00,35.0,26.9,29.92,SW,234,4.0,11.0,72,0.00,,---,0.00,VWS V14.01,2013-03-09 13:00:00,
2013-03-09 06:04:00,34.8,27.0,29.93,SW,220,5.0,7.0,73,0.00,,---,0.00,VWS V14.01,2013-03-09 13:04:00,
2013-03-09 06:05:00,34.9,27.1,29.93,SW,219,4.0,10.0,73,0.00,,---,0.00,VWS V14.01,2013-03-09 13:05:00,
2013-03-09 06:09:00,34.4,27.0,29.94,SW,219,2.0,7.0,74,0.00,,---,0.00,VWS V14.01,2013-03-09 13:09:00,
2013-03-09 06:10:00,34.5,27.1,29.94,SW,223,7.0,7.0,74,0.00,,---,0.00,VWS V14.01,2013-03-09 13:10:00,
2013-03-09 06:14:00,34.4,27.0,29.94,South,191,3.0,8.0,74,0.00,,---,0.00,VWS V14.01,2013-03-09 13:14:00,
2013-03-09 06:15:00,34.4,27.0,29.94,SSW,202,0.0,7.0,74,0.00,,---,0.00,VWS V14.01,2013-03-09 13:15:00,
2013-03-09 06:19:00,34.0,26.9,29.94,South,186,2.0,6.0,75,0.00,,---,0.00,VWS V14.01,2013-03-09 13:19:00,
2013-03-09 06:20:00,34.1,27.0,29.94,South,188,2.0,8.0,75,0.00,,---,0.00,VWS V14.01,2013-03-09 13:20:00,
2013-03-09 06:24:00,33.8,27.0,29.95,SSE,163,3.0,5.0,76,0.00,,---,0.00,VWS V14.01,2013-03-09 13:24:00,
2013-03-09 06:25:00,33.8,27.0,29.95,SSE,164,2.0,6.0,76,0.00,,---,0.00,VWS V14.01,2013-03-09 13:25:00,
2013-03-09 06:29:00,33.7,27.0,29.95,SSE,163,2.0,6.0,76,0.00,,---,0.00,VWS V14.01,2013-03-09 13:29:00,
2013-03-09 06:30:00,33.7,27.0,29.95,SSE,164,3.0,5.0,76,0.00,,---,0.00,VWS V14.01,2013-03-09 13:30:00,
2013-03-09 06:34:00,33.8,27.0,29.95,South,173,4.0,4.0,76,0.00,,---,0.00,VWS V14.01,2013-03-09 13:34:00,
2013-03-09 06:35:00,33.8,27.0,29.95,SE,146,0.0,6.0,76,0.00,,---,0.00,VWS V14.01,2013-03-09 13:35:00,
2013-03-09 06:39:00,33.8,27.0,29.95,South,176,3.0,5.0,76,0.00,,---,0.00,VWS V14.01,2013-03-09 13:39:00,
2013-03-09 06:40:00,33.8,27.0,29.95,SSE,156,3.0,6.0,76,0.00,,---,0.00,VWS V14.01,2013-03-09 13:40:00,
2013-03-09 06:44:00,34.1,27.3,29.95,South,173,4.0,6.0,76,0.00,,---,0.00,VWS V14.01,2013-03-09 13:44:00,
2013-03-09 06:45:00,34.1,27.3,29.95,SSE,168,4.0,6.0,76,0.00,,---,0.00,VWS V14.01,2013-03-09 13:45:00,
2013-03-09 06:49:00,34.1,27.0,29.95,South,176,4.0,6.0,75,0.00,,---,0.00,VWS V14.01,2013-03-09 13:49:00,
2013-03-09 06:50:00,34.1,27.0,29.94,South,173,0.0,6.0,75,0.00,,---,0.00,VWS V14.01,2013-03-09 13:50:00,
2013-03-09 06:54:00,34.2,27.1,29.95,South,175,0.0,5.0,75,0.00,,---,0.00,VWS V14.01,2013-03-09 13:54:00,
2013-03-09 06:55:00,34.2,27.1,29.95,South,175,0.0,6.0,75,0.00,,---,0.00,VWS V14.01,2013-03-09 13:55:00,
2013-03-09 06:59:00,34.4,27.3,29.95,South,183,6.0,6.0,75,0.00,,---,0.00,VWS V14.01,2013-03-09 13:59:00,
2013-03-09 07:00:00,34.3,27.2,29.95,South,182,3.0,5.0,75,0.00,,---,0.00,VWS V14.01,2013-03-09 14:00:00,
2013-03-09 07:04:00,34.6,27.2,29.95,SSW,200,4.0,7.0,74,0.00,,---,0.00,VWS V14.01,2013-03-09 14:04:00,
2013-03-09 07:05:00,34.4,27.3,29.95,South,188,7.0,9.0,75,0.00,,---,0.00,VWS V14.01,2013-03-09 14:05:00,
2013-03-09 07:09:00,35.3,27.9,29.95,SSW,209,2.0,9.0,74,0.00,,---,0.00,VWS V14.01,2013-03-09 14:09:00,
2013-03-09 07:10:00,35.1,27.7,29.95,SSW,206,9.0,9.0,74,0.00,,---,0.00,VWS V14.01,2013-03-09 14:10:00,
2013-03-09 07:14:00,35.8,28.0,29.95,SSW,203,5.0,6.0,73,0.00,,---,0.00,VWS V14.01,2013-03-09 14:14:00,
2013-03-09 07:15:00,35.7,27.9,29.95,SSW,206,4.0,9.0,73,0.00,,---,0.00,VWS V14.01,2013-03-09 14:15:00,
2013-03-09 07:19:00,36.2,28.1,29.95,SSW,192,2.0,7.0,72,0.00,,---,0.00,VWS V14.01,2013-03-09 14:19:00,
2013-03-09 07:20:00,36.0,27.9,29.95,SSW,210,3.0,6.0,72,0.00,,---,0.00,VWS V14.01,2013-03-09 14:20:00,
2013-03-09 07:24:00,36.6,28.4,29.96,SSW,210,5.0,7.0,72,0.00,,---,0.00,VWS V14.01,2013-03-09 14:24:00,
2013-03-09 07:25:00,36.5,28.4,29.96,SSW,200,4.0,7.0,72,0.00,,---,0.00,VWS V14.01,2013-03-09 14:25:00,
2013-03-09 07:29:00,37.1,28.2,29.96,SSW,205,6.0,10.0,70,0.00,,---,0.00,VWS V14.01,2013-03-09 14:29:00,
2013-03-09 07:30:00,37.1,28.6,29.96,SSW,211,5.0,9.0,71,0.00,,---,0.00,VWS V14.01,2013-03-09 14:30:00,
2013-03-09 07:34:00,37.4,28.2,29.96,SSW,207,5.0,11.0,69,0.00,,---,0.00,VWS V14.01,2013-03-09 14:34:00,
2013-03-09 07:35:00,37.4,28.2,29.95,SSW,202,7.0,11.0,69,0.00,,---,0.00,VWS V14.01,2013-03-09 14:35:00,
2013-03-09 07:39:00,37.8,28.6,29.96,SW,222,9.0,11.0,69,0.00,,---,0.00,VWS V14.01,2013-03-09 14:39:00,
2013-03-09 07:40:00,37.7,28.5,29.96,SW,222,5.0,11.0,69,0.00,,---,0.00,VWS V14.01,2013-03-09 14:40:00,
2013-03-09 07:44:00,37.6,28.0,29.97,SSW,199,7.0,11.0,68,0.00,,---,0.00,VWS V14.01,2013-03-09 14:44:00,
2013-03-09 07:45:00,37.7,28.1,29.96,SW,215,9.0,11.0,68,0.00,,---,0.00,VWS V14.01,2013-03-09 14:45:00,
2013-03-09 07:49:00,37.8,27.8,29.96,WSW,246,4.0,6.0,67,0.00,,---,0.00,VWS V14.01,2013-03-09 14:49:00,
2013-03-09 07:50:00,37.8,28.2,29.97,SW,229,5.0,11.0,68,0.00,,---,0.00,VWS V14.01,2013-03-09 14:50:00,
2013-03-09 07:54:00,37.9,28.3,29.97,SSW,211,4.0,5.0,68,0.00,,---,0.00,VWS V14.01,2013-03-09 14:54:00,
2013-03-09 07:55:00,37.9,28.3,29.97,SSW,211,3.0,7.0,68,0.00,,---,0.00,VWS V14.01,2013-03-09 14:55:00,
2013-03-09 07:59:00,37.9,28.3,29.98,SW,227,5.0,11.0,68,0.00,,---,0.00,VWS V14.01,2013-03-09 14:59:00,
2013-03-09 08:00:00,37.9,28.3,29.97,SW,224,5.0,10.0,68,0.00,,---,0.00,VWS V14.01,2013-03-09 15:00:00,
2013-03-09 08:04:00,38.0,28.0,29.98,SSW,207,3.0,8.0,67,0.00,,---,0.00,VWS V14.01,2013-03-09 15:04:00,
2013-03-09 08:05:00,38.0,28.0,29.98,SSW,211,4.0,11.0,67,0.00,,---,0.00,VWS V14.01,2013-03-09 15:05:00,
2013-03-09 08:09:00,38.2,28.2,29.98,SSW,205,3.0,7.0,67,0.00,,---,0.00,VWS V14.01,2013-03-09 15:09:00,
2013-03-09 08:10:00,38.1,28.5,29.98,South,173,3.0,10.0,68,0.00,,---,0.00,VWS V14.01,2013-03-09 15:10:00,
2013-03-09 08:14:00,38.4,28.4,29.98,SSW,213,3.0,5.0,67,0.00,,---,0.00,VWS V14.01,2013-03-09 15:14:00,
2013-03-09 08:15:00,38.3,28.3,29.98,SW,223,5.0,9.0,67,0.00,,---,0.00,VWS V14.01,2013-03-09 15:15:00,
2013-03-09 08:19:00,38.4,28.4,29.98,SW,222,6.0,10.0,67,0.00,,---,0.00,VWS V14.01,2013-03-09 15:19:00,
2013-03-09 08:20:00,38.4,28.0,29.98,SW,225,6.0,9.0,66,0.00,,---,0.00,VWS V14.01,2013-03-09 15:20:00,
2013-03-09 08:24:00,38.5,27.8,29.98,SSW,207,11.0,11.0,65,0.00,,---,0.00,VWS V14.01,2013-03-09 15:24:00,
2013-03-09 08:25:00,38.5,28.1,29.98,SW,222,9.0,12.0,66,0.00,,---,0.00,VWS V14.01,2013-03-09 15:25:00,
2013-03-09 08:29:00,38.8,28.1,29.98,SW,220,5.0,11.0,65,0.00,,---,0.00,VWS V14.01,2013-03-09 15:29:00,
2013-03-09 08:30:00,38.7,28.3,29.98,SSW,213,5.0,12.0,66,0.00,,---,0.00,VWS V14.01,2013-03-09 15:30:00,
2013-03-09 08:34:00,39.7,28.9,29.98,SSW,208,7.0,11.0,65,0.00,,---,0.00,VWS V14.01,2013-03-09 15:34:00,
2013-03-09 08:35:00,39.3,28.5,29.98,SSW,211,5.0,14.0,65,0.00,,---,0.00,VWS V14.01,2013-03-09 15:35:00,
2013-03-09 08:39:00,40.9,28.5,29.98,SW,233,11.0,13.0,61,0.00,,---,0.00,VWS V14.01,2013-03-09 15:39:00,
2013-03-09 08:40:00,40.7,29.1,29.98,SSW,194,4.0,14.0,63,0.00,,---,0.00,VWS V14.01,2013-03-09 15:40:00,
2013-03-09 08:44:00,40.9,28.5,29.98,SSW,204,5.0,10.0,61,0.00,,---,0.00,VWS V14.01,2013-03-09 15:44:00,
2013-03-09 08:45:00,40.8,28.0,29.98,SW,229,9.0,15.0,60,0.00,,---,0.00,VWS V14.01,2013-03-09 15:45:00,
2013-03-09 08:49:00,41.8,29.0,29.98,SW,224,12.0,12.0,60,0.00,,---,0.00,VWS V14.01,2013-03-09 15:49:00,
2013-03-09 08:50:00,41.7,28.4,29.98,SSW,211,10.0,14.0,59,0.00,,---,0.00,VWS V14.01,2013-03-09 15:50:00,
2013-03-09 08:54:00,41.4,28.6,29.98,SSW,213,13.0,14.0,60,0.00,,---,0.00,VWS V14.01,2013-03-09 15:54:00,
2013-03-09 08:55:00,41.6,28.4,29.98,SSW,197,14.0,15.0,59,0.00,,---,0.00,VWS V14.01,2013-03-09 15:55:00,
2013-03-09 08:59:00,41.7,28.9,29.98,SW,217,9.0,12.0,60,0.00,,---,0.00,VWS V14.01,2013-03-09 15:59:00,
2013-03-09 09:00:00,41.6,28.8,29.98,SW,220,5.0,14.0,60,0.00,,---,0.00,VWS V14.01,2013-03-09 16:00:00,
2013-03-09 09:04:00,42.0,29.1,29.99,SW,215,11.0,12.0,60,0.00,,---,0.00,VWS V14.01,2013-03-09 16:04:00,
2013-03-09 09:05:00,41.8,29.0,29.99,SSW,194,3.0,14.0,60,0.00,,---,0.00,VWS V14.01,2013-03-09 16:05:00,
2013-03-09 09:09:00,41.8,27.7,29.99,SSW,200,11.0,11.0,57,0.00,,---,0.00,VWS V14.01,2013-03-09 16:09:00,
2013-03-09 09:10:00,42.1,28.0,29.99,SW,222,9.0,14.0,57,0.00,,---,0.00,VWS V14.01,2013-03-09 16:10:00,
2013-03-09 09:14:00,41.0,27.4,29.99,SSW,207,13.0,15.0,58,0.00,,---,0.00,VWS V14.01,2013-03-09 16:14:00,
2013-03-09 09:15:00,41.1,27.0,29.99,SW,227,6.0,13.0,57,0.00,,---,0.00,VWS V14.01,2013-03-09 16:15:00,
2013-03-09 09:19:00,40.9,26.9,29.99,SW,225,13.0,13.0,57,0.00,,---,0.00,VWS V14.01,2013-03-09 16:19:00,
2013-03-09 09:20:00,40.9,26.9,29.99,SW,234,9.0,15.0,57,0.00,,---,0.00,VWS V14.01,2013-03-09 16:20:00,
2013-03-09 09:24:00,40.9,26.9,29.99,SSW,207,3.0,7.0,57,0.00,,---,0.00,VWS V14.01,2013-03-09 16:24:00,
2013-03-09 09:25:00,40.8,27.2,29.99,SW,214,4.0,13.0,58,0.00,,---,0.00,VWS V14.01,2013-03-09 16:25:00,
2013-03-09 09:29:00,41.6,27.1,29.99,WSW,245,9.0,10.0,56,0.00,,---,0.00,VWS V14.01,2013-03-09 16:29:00,
2013-03-09 09:30:00,41.5,27.8,29.99,SW,217,7.0,10.0,58,0.00,,---,0.00,VWS V14.01,2013-03-09 16:30:00,
2013-03-09 09:34:00,41.6,27.1,29.99,WSW,244,4.0,8.0,56,0.00,,---,0.00,VWS V14.01,2013-03-09 16:34:00,
2013-03-09 09:35:00,41.6,27.1,29.99,SW,227,8.0,11.0,56,0.00,,---,0.00,VWS V14.01,2013-03-09 16:35:00,
2013-03-09 09:39:00,41.6,26.6,30.00,WSW,258,8.0,8.0,55,0.00,,---,0.00,VWS V14.01,2013-03-09 16:39:00,
2013-03-09 09:40:00,41.6,26.6,30.00,SW,230,2.0,10.0,55,0.00,,---,0.00,VWS V14.01,2013-03-09 16:40:00,
2013-03-09 09:44:00,41.4,26.5,29.99,WSW,248,4.0,10.0,55,0.00,,---,0.00,VWS V14.01,2013-03-09 16:44:00,
2013-03-09 09:45:00,41.4,26.0,30.00,West,260,4.0,9.0,54,0.00,,---,0.00,VWS V14.01,2013-03-09 16:45:00,
2013-03-09 09:49:00,41.9,26.0,29.99,West,273,11.0,14.0,53,0.00,,---,0.00,VWS V14.01,2013-03-09 16:49:00,
2013-03-09 09:50:00,41.7,25.9,30.00,WSW,250,10.0,14.0,53,0.00,,---,0.00,VWS V14.01,2013-03-09 16:50:00,
2013-03-09 09:54:00,41.9,25.6,30.00,WSW,241,5.0,10.0,52,0.00,,---,0.00,VWS V14.01,2013-03-09 16:54:00,
2013-03-09 09:55:00,41.9,25.1,30.00,West,266,9.0,14.0,51,0.00,,---,0.00,VWS V14.01,2013-03-09 16:55:00,
2013-03-09 09:59:00,42.3,25.5,30.00,WNW,287,12.0,12.0,51,0.00,,---,0.00,VWS V14.01,2013-03-09 16:59:00,
2013-03-09 10:00:00,42.3,25.9,30.00,NW,305,6.0,13.0,52,0.00,,---,0.00,VWS V14.01,2013-03-09 17:00:00,
2013-03-09 10:04:00,42.0,27.0,30.00,West,269,9.0,14.0,55,0.00,,---,0.00,VWS V14.01,2013-03-09 17:04:00,
2013-03-09 10:05:00,42.0,27.0,30.00,WNW,288,8.0,12.0,55,0.00,,---,0.00,VWS V14.01,2013-03-09 17:05:00,
2013-03-09 10:09:00,41.6,26.6,30.00,WNW,290,6.0,11.0,55,0.00,,---,0.00,VWS V14.01,2013-03-09 17:09:00,
2013-03-09 10:10:00,41.6,26.2,30.00,WNW,284,6.0,14.0,54,0.00,,---,0.00,VWS V14.01,2013-03-09 17:10:00,
2013-03-09 10:14:00,43.0,27.5,30.00,West,276,4.0,7.0,54,0.00,,---,0.00,VWS V14.01,2013-03-09 17:14:00,
2013-03-09 10:15:00,42.8,27.3,30.00,West,268,7.0,13.0,54,0.00,,---,0.00,VWS V14.01,2013-03-09 17:15:00,
2013-03-09 10:19:00,42.7,26.8,30.00,WNW,302,9.0,12.0,53,0.00,,---,0.00,VWS V14.01,2013-03-09 17:19:00,
2013-03-09 10:20:00,42.9,27.0,30.00,WNW,284,7.0,15.0,53,0.00,,---,0.00,VWS V14.01,2013-03-09 17:20:00,
2013-03-09 10:24:00,42.3,27.3,30.00,WNW,292,7.0,9.0,55,0.00,,---,0.00,VWS V14.01,2013-03-09 17:24:00,
2013-03-09 10:25:00,42.4,27.4,30.00,WNW,301,7.0,13.0,55,0.00,,---,0.00,VWS V14.01,2013-03-09 17:25:00,
2013-03-09 10:29:00,42.0,27.9,30.00,WNW,303,10.0,11.0,57,0.00,,---,0.00,VWS V14.01,2013-03-09 17:29:00,
2013-03-09 10:30:00,42.0,27.9,30.00,NW,311,7.0,13.0,57,0.00,,---,0.00,VWS V14.01,2013-03-09 17:30:00,
2013-03-09 10:34:00,42.0,28.7,30.01,WNW,283,10.0,15.0,59,0.00,,---,0.00,VWS V14.01,2013-03-09 17:34:00,
2013-03-09 10:35:00,41.9,28.6,30.01,NW,306,12.0,12.0,59,0.00,,---,0.00,VWS V14.01,2013-03-09 17:35:00,
2013-03-09 10:39:00,42.2,28.9,30.00,WNW,296,4.0,7.0,59,0.00,,---,0.00,VWS V14.01,2013-03-09 17:39:00,
2013-03-09 10:40:00,42.1,28.8,30.01,WNW,294,5.0,15.0,59,0.00,,---,0.00,VWS V14.01,2013-03-09 17:40:00,
2013-03-09 10:44:00,42.7,28.5,30.00,WSW,258,10.0,11.0,57,0.00,,---,0.00,VWS V14.01,2013-03-09 17:44:00,
2013-03-09 10:45:00,42.7,29.0,30.00,WSW,248,9.0,10.0,58,0.00,,---,0.00,VWS V14.01,2013-03-09 17:45:00,
2013-03-09 10:49:00,42.8,27.8,30.00,West,272,7.0,11.0,55,0.00,,---,0.00,VWS V14.01,2013-03-09 17:49:00,
2013-03-09 10:50:00,42.8,27.8,30.00,West,263,6.0,11.0,55,0.00,,---,0.00,VWS V14.01,2013-03-09 17:50:00,
2013-03-09 10:54:00,43.2,28.6,30.00,West,270,6.0,6.0,56,0.00,,---,0.00,VWS V14.01,2013-03-09 17:54:00,
2013-03-09 10:55:00,43.1,28.0,30.00,WSW,244,5.0,11.0,55,0.00,,---,0.00,VWS V14.01,2013-03-09 17:55:00,
2013-03-09 10:59:00,43.4,28.8,30.00,WSW,248,4.0,5.0,56,0.00,,---,0.00,VWS V14.01,2013-03-09 17:59:00,
2013-03-09 11:00:00,43.4,28.3,30.00,WSW,245,5.0,9.0,55,0.00,,---,0.00,VWS V14.01,2013-03-09 18:00:00,
2013-03-09 11:04:00,43.5,27.5,30.00,West,275,10.0,12.0,53,0.00,,---,0.00,VWS V14.01,2013-03-09 18:04:00,
2013-03-09 11:05:00,43.6,28.1,30.00,WNW,284,11.0,13.0,54,0.00,,---,0.00,VWS V14.01,2013-03-09 18:05:00,
2013-03-09 11:09:00,43.3,27.3,30.00,West,273,11.0,12.0,53,0.00,,---,0.00,VWS V14.01,2013-03-09 18:09:00,
2013-03-09 11:10:00,43.3,27.8,30.00,WNW,287,5.0,12.0,54,0.00,,---,0.00,VWS V14.01,2013-03-09 18:10:00,
2013-03-09 11:14:00,43.7,27.7,30.00,WNW,286,8.0,12.0,53,0.00,,---,0.00,VWS V14.01,2013-03-09 18:14:00,
2013-03-09 11:15:00,43.6,27.1,30.00,WNW,290,12.0,18.0,52,0.00,,---,0.00,VWS V14.01,2013-03-09 18:15:00,
2013-03-09 11:19:00,43.6,27.1,30.00,WNW,291,5.0,9.0,52,0.00,,---,0.00,VWS V14.01,2013-03-09 18:19:00,
2013-03-09 11:20:00,43.6,26.7,30.00,NW,308,6.0,14.0,51,0.00,,---,0.00,VWS V14.01,2013-03-09 18:20:00,
2013-03-09 11:24:00,44.5,26.5,30.00,WNW,285,14.0,14.0,49,0.00,,---,0.00,VWS V14.01,2013-03-09 18:24:00,
2013-03-09 11:25:00,44.4,26.9,30.00,West,270,12.0,15.0,50,0.00,,---,0.00,VWS V14.01,2013-03-09 18:25:00,
2013-03-09 11:29:00,45.0,27.0,30.00,WNW,300,15.0,15.0,49,0.00,,---,0.00,VWS V14.01,2013-03-09 18:29:00,
2013-03-09 11:30:00,44.7,26.7,30.00,WNW,291,9.0,16.0,49,0.00,,---,0.00,VWS V14.01,2013-03-09 18:30:00,
2013-03-09 11:34:00,44.6,26.6,30.00,West,279,10.0,14.0,49,0.00,,---,0.00,VWS V14.01,2013-03-09 18:34:00,
2013-03-09 11:35:00,44.7,26.7,30.00,WNW,295,14.0,16.0,49,0.00,,---,0.00,VWS V14.01,2013-03-09 18:35:00,
2013-03-09 11:39:00,44.5,27.5,30.00,WNW,283,11.0,12.0,51,0.00,,---,0.00,VWS V14.01,2013-03-09 18:39:00,
2013-03-09 11:40:00,44.5,27.5,30.00,NW,324,5.0,16.0,51,0.00,,---,0.00,VWS V14.01,2013-03-09 18:40:00,
2013-03-09 11:44:00,44.9,28.4,30.00,NNW,329,6.0,10.0,52,0.00,,---,0.00,VWS V14.01,2013-03-09 18:44:00,
2013-03-09 11:45:00,44.7,27.7,30.00,NW,309,10.0,19.0,51,0.00,,---,0.00,VWS V14.01,2013-03-09 18:45:00,
2013-03-09 11:49:00,45.0,26.5,30.00,West,279,14.0,18.0,48,0.00,,---,0.00,VWS V14.01,2013-03-09 18:49:00,
2013-03-09 11:50:00,45.1,26.6,30.00,West,274,16.0,17.0,48,0.00,,---,0.00,VWS V14.01,2013-03-09 18:50:00,
2013-03-09 11:54:00,44.5,28.5,30.00,WNW,295,13.0,16.0,53,0.00,,---,0.00,VWS V14.01,2013-03-09 18:54:00,
2013-03-09 11:55:00,44.6,28.5,30.00,West,273,14.0,19.0,53,0.00,,---,0.00,VWS V14.01,2013-03-09 18:55:00,
2013-03-09 11:59:00,44.3,30.0,30.00,West,270,16.0,16.0,57,0.00,,---,0.00,VWS V14.01,2013-03-09 18:59:00,
2013-03-09 12:00:00,44.4,29.7,30.00,WNW,282,15.0,18.0,56,0.00,,---,0.00,VWS V14.01,2013-03-09 19:00:00,
2013-03-09 12:04:00,45.0,29.8,30.00,WNW,284,15.0,15.0,55,0.00,,---,0.00,VWS V14.01,2013-03-09 19:04:00,
2013-03-09 12:05:00,45.0,30.7,30.00,West,275,12.0,18.0,57,0.00,,---,0.00,VWS V14.01,2013-03-09 19:05:00,
2013-03-09 12:09:00,45.7,30.5,30.00,WNW,294,7.0,13.0,55,0.00,,---,0.00,VWS V14.01,2013-03-09 19:09:00,
2013-03-09 12:10:00,45.5,30.3,30.00,West,265,13.0,19.0,55,0.00,,---,0.00,VWS V14.01,2013-03-09 19:10:00,
2013-03-09 12:14:00,47.2,31.0,29.99,West,271,17.0,17.0,53,0.00,,---,0.00,VWS V14.01,2013-03-09 19:14:00,
2013-03-09 12:15:00,47.1,30.9,29.99,NW,313,5.0,16.0,53,0.00,,---,0.00,VWS V14.01,2013-03-09 19:15:00,
2013-03-09 12:19:00,46.3,29.6,29.99,WNW,302,15.0,15.0,52,0.00,,---,0.00,VWS V14.01,2013-03-09 19:19:00,
2013-03-09 12:20:00,46.4,30.2,29.99,WNW,293,14.0,18.0,53,0.00,,---,0.00,VWS V14.01,2013-03-09 19:20:00,
2013-03-09 12:24:00,45.5,28.9,29.99,NW,321,13.0,15.0,52,0.00,,---,0.00,VWS V14.01,2013-03-09 19:24:00,
2013-03-09 12:25:00,45.6,29.0,29.99,West,273,11.0,18.0,52,0.00,,---,0.00,VWS V14.01,2013-03-09 19:25:00,
2013-03-09 12:29:00,45.0,28.9,29.99,WNW,299,15.0,17.0,53,0.00,,---,0.00,VWS V14.01,2013-03-09 19:29:00,
2013-03-09 12:30:00,45.1,29.0,29.99,West,260,12.0,18.0,53,0.00,,---,0.00,VWS V14.01,2013-03-09 19:30:00,
2013-03-09 12:34:00,44.9,29.7,29.99,NW,304,17.0,17.0,55,0.00,,---,0.00,VWS V14.01,2013-03-09 19:34:00,
2013-03-09 12:35:00,44.8,29.2,29.99,WNW,296,10.0,17.0,54,0.00,,---,0.00,VWS V14.01,2013-03-09 19:35:00,
2013-03-09 12:39:00,45.1,28.5,30.00,WNW,283,17.0,17.0,52,0.00,,---,0.00,VWS V14.01,2013-03-09 19:39:00,
2013-03-09 12:40:00,45.1,28.5,29.99,West,271,15.0,18.0,52,0.00,,---,0.00,VWS V14.01,2013-03-09 19:40:00,
2013-03-09 12:44:00,44.7,29.1,30.00,West,267,17.0,19.0,54,0.00,,---,0.00,VWS V14.01,2013-03-09 19:44:00,
2013-03-09 12:45:00,44.7,29.1,30.00,West,260,19.0,20.0,54,0.00,,---,0.00,VWS V14.01,2013-03-09 19:45:00,
2013-03-09 12:49:00,44.0,30.2,29.99,West,271,15.0,18.0,58,0.00,,---,0.00,VWS V14.01,2013-03-09 19:49:00,
2013-03-09 12:50:00,44.0,29.8,29.99,WNW,286,16.0,20.0,57,0.00,,---,0.00,VWS V14.01,2013-03-09 19:50:00,
2013-03-09 12:54:00,43.8,30.0,29.99,WNW,286,13.0,15.0,58,0.00,,---,0.00,VWS V14.01,2013-03-09 19:54:00,
2013-03-09 12:55:00,43.7,30.7,29.99,West,276,14.0,20.0,60,0.00,,---,0.00,VWS V14.01,2013-03-09 19:55:00,
2013-03-09 12:59:00,44.6,30.3,29.99,West,266,12.0,15.0,57,0.00,,---,0.00,VWS V14.01,2013-03-09 19:59:00,
2013-03-09 13:00:00,44.3,30.0,29.99,West,272,11.0,16.0,57,0.00,,---,0.00,VWS V14.01,2013-03-09 20:00:00,
2013-03-09 13:04:00,45.8,30.6,29.99,West,276,14.0,15.0,55,0.00,,---,0.00,VWS V14.01,2013-03-09 20:04:00,
2013-03-09 13:05:00,45.7,30.0,29.99,West,275,14.0,17.0,54,0.00,,---,0.00,VWS V14.01,2013-03-09 20:05:00,
2013-03-09 13:09:00,46.2,30.0,29.99,West,267,10.0,15.0,53,0.00,,---,0.00,VWS V14.01,2013-03-09 20:09:00,
2013-03-09 13:10:00,46.3,29.6,29.99,WSW,256,15.0,16.0,52,0.00,,---,0.00,VWS V14.01,2013-03-09 20:10:00,
2013-03-09 13:14:00,46.7,31.9,29.99,West,263,12.0,14.0,56,0.00,,---,0.00,VWS V14.01,2013-03-09 20:14:00,
2013-03-09 13:15:00,46.6,31.8,29.99,West,262,12.0,19.0,56,0.00,,---,0.00,VWS V14.01,2013-03-09 20:15:00,
2013-03-09 13:19:00,46.9,30.2,29.98,West,275,9.0,13.0,52,0.00,,---,0.00,VWS V14.01,2013-03-09 20:19:00,
2013-03-09 13:20:00,46.8,29.6,29.99,WNW,292,12.0,18.0,51,0.00,,---,0.00,VWS V14.01,2013-03-09 20:20:00,
2013-03-09 13:24:00,47.2,31.0,29.99,WNW,284,13.0,17.0,53,0.00,,---,0.00,VWS V14.01,2013-03-09 20:24:00,
2013-03-09 13:25:00,47.2,31.0,29.99,West,280,17.0,19.0,53,0.00,,---,0.00,VWS V14.01,2013-03-09 20:25:00,
2013-03-09 13:29:00,46.3,30.1,29.98,WSW,256,16.0,16.0,53,0.00,,---,0.00,VWS V14.01,2013-03-09 20:29:00,
2013-03-09 13:30:00,46.4,30.2,29.98,WSW,257,13.0,18.0,53,0.00,,---,0.00,VWS V14.01,2013-03-09 20:30:00,
2013-03-09 13:34:00,45.3,30.1,29.98,West,279,10.0,16.0,55,0.00,,---,0.00,VWS V14.01,2013-03-09 20:34:00,
2013-03-09 13:35:00,45.3,30.1,29.98,West,261,11.0,16.0,55,0.00,,---,0.00,VWS V14.01,2013-03-09 20:35:00,
2013-03-09 13:39:00,45.0,30.3,29.98,WNW,285,11.0,13.0,56,0.00,,---,0.00,VWS V14.01,2013-03-09 20:39:00,
2013-03-09 13:40:00,45.0,30.3,29.98,WSW,253,10.0,16.0,56,0.00,,---,0.00,VWS V14.01,2013-03-09 20:40:00,
2013-03-09 13:44:00,45.1,30.8,29.98,WNW,286,15.0,15.0,57,0.00,,---,0.00,VWS V14.01,2013-03-09 20:44:00,
2013-03-09 13:45:00,45.0,30.7,29.98,West,273,14.0,16.0,57,0.00,,---,0.00,VWS V14.01,2013-03-09 20:45:00,
2013-03-09 13:49:00,45.7,31.4,29.99,WNW,295,14.0,19.0,57,0.00,,---,0.00,VWS V14.01,2013-03-09 20:49:00,
2013-03-09 13:50:00,45.6,31.7,29.99,WNW,290,13.0,18.0,58,0.00,,---,0.00,VWS V14.01,2013-03-09 20:50:00,
2013-03-09 13:54:00,46.5,32.1,29.99,NW,315,13.0,15.0,57,0.00,,---,0.00,VWS V14.01,2013-03-09 20:54:00,
2013-03-09 13:55:00,46.5,32.1,29.99,NW,311,12.0,19.0,57,0.00,,---,0.00,VWS V14.01,2013-03-09 20:55:00,
2013-03-09 13:59:00,45.9,30.7,29.99,WNW,287,15.0,21.0,55,0.00,,---,0.00,VWS V14.01,2013-03-09 20:59:00,
2013-03-09 14:00:00,46.0,31.2,29.99,WNW,284,15.0,19.0,56,0.00,,---,0.00,VWS V14.01,2013-03-09 21:00:00,
2013-03-09 14:04:00,44.5,31.1,29.99,WSW,257,18.0,20.0,59,0.00,,---,0.00,VWS V14.01,2013-03-09 21:04:00,
2013-03-09 14:05:00,44.6,31.2,29.99,West,266,17.0,24.0,59,0.00,,---,0.00,VWS V14.01,2013-03-09 21:05:00,
2013-03-09 14:09:00,44.2,30.0,29.99,West,280,15.0,16.0,57,0.00,,---,0.00,VWS V14.01,2013-03-09 21:09:00,
2013-03-09 14:10:00,44.2,30.0,29.99,West,263,14.0,21.0,57,0.00,,---,0.00,VWS V14.01,2013-03-09 21:10:00,
2013-03-09 14:14:00,44.7,29.5,29.99,West,261,18.0,21.0,55,0.00,,---,0.00,VWS V14.01,2013-03-09 21:14:00,
2013-03-09 14:15:00,44.7,30.0,29.99,West,277,19.0,23.0,56,0.00,,---,0.00,VWS V14.01,2013-03-09 21:15:00,
2013-03-09 14:19:00,44.5,29.8,29.99,WSW,252,14.0,15.0,56,0.00,,---,0.00,VWS V14.01,2013-03-09 21:19:00,
2013-03-09 14:20:00,44.5,29.8,29.99,West,276,14.0,21.0,56,0.00,,---,0.00,VWS V14.01,2013-03-09 21:20:00,
2013-03-09 14:24:00,45.4,28.4,29.99,WSW,258,13.0,13.0,51,0.00,,---,0.00,VWS V14.01,2013-03-09 21:24:00,
2013-03-09 14:25:00,45.2,29.1,29.99,SW,232,12.0,17.0,53,0.00,,---,0.00,VWS V14.01,2013-03-09 21:25:00,
2013-03-09 14:29:00,45.0,32.0,29.99,WSW,257,14.0,18.0,60,0.00,,---,0.00,VWS V14.01,2013-03-09 21:29:00,
2013-03-09 14:30:00,45.1,31.2,29.99,West,260,11.0,18.0,58,0.00,,---,0.00,VWS V14.01,2013-03-09 21:30:00,
2013-03-09 14:34:00,45.1,33.3,29.99,WNW,300,9.0,12.0,63,0.00,,---,0.00,VWS V14.01,2013-03-09 21:34:00,
2013-03-09 14:35:00,45.0,33.2,29.99,WNW,288,11.0,20.0,63,0.00,,---,0.00,VWS V14.01,2013-03-09 21:35:00,
2013-03-09 14:39:00,45.6,32.9,29.99,NNW,333,14.0,15.0,61,0.00,,---,0.00,VWS V14.01,2013-03-09 21:39:00,
2013-03-09 14:40:00,45.6,32.9,29.99,WNW,294,13.0,21.0,61,0.00,,---,0.00,VWS V14.01,2013-03-09 21:40:00,
2013-03-09 14:44:00,46.5,32.1,29.99,West,263,15.0,18.0,57,0.00,,---,0.00,VWS V14.01,2013-03-09 21:44:00,
2013-03-09 14:45:00,46.6,32.2,29.99,WNW,286,14.0,19.0,57,0.00,,---,0.00,VWS V14.01,2013-03-09 21:45:00,
2013-03-09 14:49:00,45.2,31.3,30.00,WSW,257,13.0,16.0,58,0.00,,---,0.00,VWS V14.01,2013-03-09 21:49:00,
2013-03-09 14:50:00,45.3,31.8,30.00,West,264,16.0,18.0,59,0.00,,---,0.00,VWS V14.01,2013-03-09 21:50:00,
2013-03-09 14:54:00,44.8,30.9,30.00,WNW,284,12.0,14.0,58,0.00,,---,0.00,VWS V14.01,2013-03-09 21:54:00,
2013-03-09 14:55:00,44.9,31.0,30.00,WNW,290,14.0,17.0,58,0.00,,---,0.00,VWS V14.01,2013-03-09 21:55:00,
2013-03-09 14:59:00,44.3,31.3,29.99,WNW,287,7.0,13.0,60,0.00,,---,0.00,VWS V14.01,2013-03-09 21:59:00,
2013-03-09 15:00:00,44.4,31.4,30.00,NW,315,13.0,19.0,60,0.00,,---,0.00,VWS V14.01,2013-03-09 22:00:00,
2013-03-09 15:04:00,44.4,31.0,30.00,West,273,11.0,16.0,59,0.00,,---,0.00,VWS V14.01,2013-03-09 22:04:00,
2013-03-09 15:05:00,44.4,31.0,30.00,West,269,13.0,20.0,59,0.00,,---,0.00,VWS V14.01,2013-03-09 22:05:00,
2013-03-09 15:09:00,44.4,31.8,30.00,West,268,13.0,17.0,61,0.00,,---,0.00,VWS V14.01,2013-03-09 22:09:00,
2013-03-09 15:10:00,44.5,31.9,30.00,West,279,17.0,19.0,61,0.00,,---,0.00,VWS V14.01,2013-03-09 22:10:00,
2013-03-09 15:14:00,43.6,32.2,30.01,West,275,12.0,17.0,64,0.00,,---,0.00,VWS V14.01,2013-03-09 22:14:00,
2013-03-09 15:15:00,43.7,32.3,30.01,WNW,291,17.0,19.0,64,0.00,,---,0.00,VWS V14.01,2013-03-09 22:15:00,
2013-03-09 15:19:00,42.8,31.5,30.01,West,281,12.0,15.0,64,0.00,,---,0.00,VWS V14.01,2013-03-09 22:19:00,
2013-03-09 15:20:00,42.9,31.6,30.01,West,281,11.0,19.0,64,0.00,,---,0.00,VWS V14.01,2013-03-09 22:20:00,
2013-03-09 15:24:00,42.8,31.5,30.01,WNW,290,12.0,14.0,64,0.00,,---,0.00,VWS V14.01,2013-03-09 22:24:00,
2013-03-09 15:25:00,42.8,31.5,30.00,West,270,12.0,19.0,64,0.00,,---,0.00,VWS V14.01,2013-03-09 22:25:00,
2013-03-09 15:29:00,43.9,31.7,30.01,West,276,17.0,18.0,62,0.00,,---,0.00,VWS V14.01,2013-03-09 22:29:00,
2013-03-09 15:30:00,43.8,31.6,30.01,WNW,283,12.0,16.0,62,0.00,,---,0.00,VWS V14.01,2013-03-09 22:30:00,
2013-03-09 15:34:00,44.4,31.4,30.01,West,275,9.0,13.0,60,0.00,,---,0.00,VWS V14.01,2013-03-09 22:34:00,
2013-03-09 15:35:00,44.5,31.5,30.01,West,273,12.0,18.0,60,0.00,,---,0.00,VWS V14.01,2013-03-09 22:35:00,
2013-03-09 15:39:00,44.0,31.0,30.00,WNW,284,15.0,16.0,60,0.00,,---,0.00,VWS V14.01,2013-03-09 22:39:00,
2013-03-09 15:40:00,44.0,31.0,30.00,West,279,15.0,18.0,60,0.00,,---,0.00,VWS V14.01,2013-03-09 22:40:00,
2013-03-09 15:44:00,44.7,31.3,30.00,WNW,303,10.0,17.0,59,0.00,,---,0.00,VWS V14.01,2013-03-09 22:44:00,
2013-03-09 15:45:00,44.6,31.2,30.00,WNW,295,13.0,18.0,59,0.00,,---,0.00,VWS V14.01,2013-03-09 22:45:00,
2013-03-09 15:49:00,45.6,32.1,30.00,WSW,257,16.0,16.0,59,0.00,,---,0.00,VWS V14.01,2013-03-09 22:49:00,
2013-03-09 15:50:00,45.5,32.0,30.01,West,262,14.0,17.0,59,0.00,,---,0.00,VWS V14.01,2013-03-09 22:50:00,
2013-03-09 15:53:00,45.0,31.5,30.00,West,281,14.0,15.0,59,0.00,,---,0.00,VWS V14.01,2013-03-09 22:53:00,
2013-03-09 15:55:00,45.0,31.5,30.00,West,259,11.0,18.0,59,0.00,,---,0.00,VWS V14.01,2013-03-09 22:55:00,
2013-03-09 15:58:00,45.3,30.5,30.01,West,266,15.0,17.0,56,0.00,,---,0.00,VWS V14.01,2013-03-09 22:58:00,
2013-03-09 16:00:00,45.3,31.4,30.00,West,268,17.0,20.0,58,0.00,,---,0.00,VWS V14.01,2013-03-09 23:00:00,
2013-03-09 16:03:00,45.4,31.1,30.00,West,279,9.0,12.0,57,0.00,,---,0.00,VWS V14.01,2013-03-09 23:03:00,
2013-03-09 16:05:00,45.4,31.1,30.00,WNW,299,12.0,17.0,57,0.00,,---,0.00,VWS V14.01,2013-03-09 23:05:00,
2013-03-09 16:08:00,45.4,31.5,30.01,WNW,294,11.0,12.0,58,0.00,,---,0.00,VWS V14.01,2013-03-09 23:08:00,
2013-03-09 16:10:00,45.3,31.4,30.01,WNW,302,11.0,18.0,58,0.00,,---,0.00,VWS V14.01,2013-03-09 23:10:00,
2013-03-09 16:13:00,45.4,30.6,30.01,West,272,11.0,17.0,56,0.00,,---,0.00,VWS V14.01,2013-03-09 23:13:00,
2013-03-09 16:15:00,45.4,30.6,30.00,West,264,11.0,20.0,56,0.00,,---,0.00,VWS V14.01,2013-03-09 23:15:00,
2013-03-09 16:18:00,44.7,29.5,30.01,WNW,301,13.0,13.0,55,0.00,,---,0.00,VWS V14.01,2013-03-09 23:18:00,
2013-03-09 16:20:00,44.8,29.6,30.01,West,280,13.0,21.0,55,0.00,,---,0.00,VWS V14.01,2013-03-09 23:20:00,
2013-03-09 16:23:00,44.7,30.0,30.01,West,276,11.0,17.0,56,0.00,,---,0.00,VWS V14.01,2013-03-09 23:23:00,
2013-03-09 16:25:00,44.6,29.9,30.01,WNW,282,15.0,21.0,56,0.00,,---,0.00,VWS V14.01,2013-03-09 23:25:00,
2013-03-09 16:28:00,44.4,29.7,30.01,West,275,17.0,17.0,56,0.00,,---,0.00,VWS V14.01,2013-03-09 23:28:00,
2013-03-09 16:30:00,44.4,29.7,30.01,West,277,16.0,18.0,56,0.00,,---,0.00,VWS V14.01,2013-03-09 23:30:00,
2013-03-09 16:33:00,43.7,29.5,30.01,WNW,286,12.0,15.0,57,0.00,,---,0.00,VWS V14.01,2013-03-09 23:33:00,
2013-03-09 16:35:00,43.7,29.5,30.02,WNW,292,12.0,19.0,57,0.00,,---,0.00,VWS V14.01,2013-03-09 23:35:00,
2013-03-09 16:38:00,44.2,30.0,30.01,West,275,12.0,14.0,57,0.00,,---,0.00,VWS V14.01,2013-03-09 23:38:00,
2013-03-09 16:40:00,44.2,30.0,30.02,NW,313,11.0,17.0,57,0.00,,---,0.00,VWS V14.01,2013-03-09 23:40:00,
2013-03-09 16:43:00,45.0,29.8,30.02,West,260,13.0,13.0,55,0.00,,---,0.00,VWS V14.01,2013-03-09 23:43:00,
2013-03-09 16:45:00,44.9,30.6,30.02,West,261,10.0,14.0,57,0.00,,---,0.00,VWS V14.01,2013-03-09 23:45:00,
2013-03-09 16:48:00,45.1,29.9,30.02,West,281,10.0,10.0,55,0.00,,---,0.00,VWS V14.01,2013-03-09 23:48:00,
2013-03-09 16:50:00,45.1,29.9,30.02,West,273,8.0,15.0,55,0.00,,---,0.00,VWS V14.01,2013-03-09 23:50:00,
2013-03-09 16:53:00,45.8,31.0,30.02,West,265,8.0,13.0,56,0.00,,---,0.00,VWS V14.01,2013-03-09 23:53:00,
2013-03-09 16:55:00,45.8,31.0,30.01,West,260,8.0,12.0,56,0.00,,---,0.00,VWS V14.01,2013-03-09 23:55:00,
2013-03-09 16:58:00,45.9,30.2,30.02,WNW,282,12.0,13.0,54,0.00,,---,0.00,VWS V14.01,2013-03-09 23:58:00,
2013-03-09 17:00:00,45.9,30.2,30.02,WNW,283,6.0,15.0,54,0.00,,---,0.00,VWS V14.01,2013-03-10 00:00:00,
2013-03-09 17:03:00,45.0,29.8,30.02,West,270,11.0,14.0,55,0.00,,---,0.00,VWS V14.01,2013-03-10 00:03:00,
2013-03-09 17:05:00,45.0,29.8,30.02,West,279,14.0,19.0,55,0.00,,---,0.00,VWS V14.01,2013-03-10 00:05:00,
2013-03-09 17:08:00,44.6,30.3,30.02,WNW,284,15.0,15.0,57,0.00,,---,0.00,VWS V14.01,2013-03-10 00:08:00,
2013-03-09 17:10:00,44.6,29.9,30.02,WNW,283,13.0,20.0,56,0.00,,---,0.00,VWS V14.01,2013-03-10 00:10:00,
2013-03-09 17:13:00,44.6,29.9,30.02,West,277,14.0,17.0,56,0.00,,---,0.00,VWS V14.01,2013-03-10 00:13:00,
2013-03-09 17:15:00,44.6,30.3,30.02,West,280,17.0,17.0,57,0.00,,---,0.00,VWS V14.01,2013-03-10 00:15:00,
2013-03-09 17:18:00,44.0,30.2,30.02,WNW,290,11.0,14.0,58,0.00,,---,0.00,VWS V14.01,2013-03-10 00:18:00,
2013-03-09 17:20:00,44.0,30.2,30.03,WNW,289,13.0,19.0,58,0.00,,---,0.00,VWS V14.01,2013-03-10 00:20:00,
2013-03-09 17:23:00,43.9,30.1,30.03,WNW,300,12.0,14.0,58,0.00,,---,0.00,VWS V14.01,2013-03-10 00:23:00,
2013-03-09 17:25:00,43.8,30.0,30.02,WNW,302,10.0,19.0,58,0.00,,---,0.00,VWS V14.01,2013-03-10 00:25:00,
2013-03-09 17:28:00,44.4,30.1,30.03,WNW,292,10.0,13.0,57,0.00,,---,0.00,VWS V14.01,2013-03-10 00:28:00,
2013-03-09 17:30:00,44.4,30.1,30.03,WNW,291,13.0,18.0,57,0.00,,---,0.00,VWS V14.01,2013-03-10 00:30:00,
2013-03-09 17:33:00,44.5,30.2,30.03,West,271,14.0,14.0,57,0.00,,---,0.00,VWS V14.01,2013-03-10 00:33:00,
2013-03-09 17:35:00,44.5,30.2,30.02,WNW,286,11.0,18.0,57,0.00,,---,0.00,VWS V14.01,2013-03-10 00:35:00,
2013-03-09 17:38:00,44.6,29.9,30.03,WNW,283,14.0,18.0,56,0.00,,---,0.00,VWS V14.01,2013-03-10 00:38:00,
2013-03-09 17:40:00,44.7,30.0,30.03,West,271,15.0,19.0,56,0.00,,---,0.00,VWS V14.01,2013-03-10 00:40:00,
2013-03-09 17:43:00,44.1,30.3,30.03,West,277,14.0,14.0,58,0.00,,---,0.00,VWS V14.01,2013-03-10 00:43:00,
2013-03-09 17:45:00,44.1,30.3,30.03,West,274,7.0,18.0,58,0.00,,---,0.00,VWS V14.01,2013-03-10 00:45:00,
2013-03-09 17:48:00,43.3,30.4,30.03,West,279,12.0,16.0,60,0.00,,---,0.00,VWS V14.01,2013-03-10 00:48:00,
2013-03-09 17:50:00,43.3,30.0,30.04,West,264,16.0,18.0,59,0.00,,---,0.00,VWS V14.01,2013-03-10 00:50:00,
2013-03-09 17:53:00,42.9,30.4,30.04,WNW,282,16.0,16.0,61,0.00,,---,0.00,VWS V14.01,2013-03-10 00:53:00,
2013-03-09 17:55:00,42.9,30.4,30.04,WNW,284,11.0,19.0,61,0.00,,---,0.00,VWS V14.01,2013-03-10 00:55:00,
2013-03-09 17:58:00,42.8,31.1,30.04,West,279,6.0,11.0,63,0.00,,---,0.00,VWS V14.01,2013-03-10 00:58:00,
2013-03-09 18:00:00,42.9,31.2,30.04,WNW,294,11.0,19.0,63,0.00,,---,0.00,VWS V14.01,2013-03-10 01:00:00,
2013-03-09 18:03:00,42.6,30.5,30.04,WNW,282,10.0,10.0,62,0.00,,---,0.00,VWS V14.01,2013-03-10 01:03:00,
2013-03-09 18:05:00,42.7,30.6,30.04,WNW,295,10.0,17.0,62,0.00,,---,0.00,VWS V14.01,2013-03-10 01:05:00,
2013-03-09 18:08:00,42.2,30.1,30.04,WNW,282,13.0,13.0,62,0.00,,---,0.00,VWS V14.01,2013-03-10 01:08:00,
2013-03-09 18:10:00,42.2,30.1,30.04,WNW,288,11.0,17.0,62,0.00,,---,0.00,VWS V14.01,2013-03-10 01:10:00,
2013-03-09 18:13:00,41.8,30.5,30.04,WNW,284,6.0,9.0,64,0.00,,---,0.00,VWS V14.01,2013-03-10 01:13:00,
2013-03-09 18:15:00,41.8,30.5,30.04,WNW,283,9.0,15.0,64,0.00,,---,0.00,VWS V14.01,2013-03-10 01:15:00,
2013-03-09 18:18:00,41.5,30.6,30.04,WNW,286,9.0,13.0,65,0.00,,---,0.00,VWS V14.01,2013-03-10 01:18:00,
2013-03-09 18:20:00,41.5,30.6,30.04,WNW,289,12.0,14.0,65,0.00,,---,0.00,VWS V14.01,2013-03-10 01:20:00,
2013-03-09 18:23:00,41.1,31.0,30.04,WNW,292,16.0,18.0,67,0.00,,---,0.00,VWS V14.01,2013-03-10 01:23:00,
2013-03-09 18:25:00,41.1,31.0,30.04,WNW,284,17.0,20.0,67,0.00,,---,0.00,VWS V14.01,2013-03-10 01:25:00,
2013-03-09 18:28:00,40.9,30.8,30.05,West,275,12.0,12.0,67,0.00,,---,0.00,VWS V14.01,2013-03-10 01:28:00,
2013-03-09 18:30:00,40.9,30.8,30.05,West,277,8.0,18.0,67,0.00,,---,0.00,VWS V14.01,2013-03-10 01:30:00,
2013-03-09 18:33:00,40.8,31.1,30.05,WNW,286,14.0,14.0,68,0.00,,---,0.00,VWS V14.01,2013-03-10 01:33:00,
2013-03-09 18:35:00,40.8,31.1,30.05,West,274,10.0,16.0,68,0.00,,---,0.00,VWS V14.01,2013-03-10 01:35:00,
2013-03-09 18:38:00,40.7,31.0,30.05,West,281,12.0,12.0,68,0.00,,---,0.00,VWS V14.01,2013-03-10 01:38:00,
2013-03-09 18:40:00,40.7,31.0,30.05,West,281,11.0,18.0,68,0.00,,---,0.00,VWS V14.01,2013-03-10 01:40:00,
2013-03-09 18:43:00,40.7,31.3,30.05,WNW,296,10.0,11.0,69,0.00,,---,0.00,VWS V14.01,2013-03-10 01:43:00,
2013-03-09 18:45:00,40.7,31.3,30.05,West,268,10.0,15.0,69,0.00,,---,0.00,VWS V14.01,2013-03-10 01:45:00,
2013-03-09 18:48:00,40.7,31.3,30.05,West,274,12.0,13.0,69,0.00,,---,0.00,VWS V14.01,2013-03-10 01:48:00,
2013-03-09 18:50:00,40.7,31.3,30.05,WNW,284,12.0,15.0,69,0.00,,---,0.00,VWS V14.01,2013-03-10 01:50:00,
2013-03-09 18:53:00,40.7,31.3,30.05,West,277,12.0,12.0,69,0.00,,---,0.00,VWS V14.01,2013-03-10 01:53:00,
2013-03-09 18:55:00,40.7,31.3,30.05,WNW,284,9.0,20.0,69,0.00,,---,0.00,VWS V14.01,2013-03-10 01:55:00,
2013-03-09 18:58:00,40.6,30.9,30.05,West,271,9.0,11.0,68,0.00,,---,0.00,VWS V14.01,2013-03-10 01:58:00,
2013-03-09 19:00:00,40.6,30.9,30.05,WNW,283,11.0,15.0,68,0.00,,---,0.00,VWS V14.01,2013-03-10 02:00:00,
2013-03-09 19:03:00,40.5,31.1,30.05,West,276,9.0,11.0,69,0.00,,---,0.00,VWS V14.01,2013-03-10 02:03:00,
2013-03-09 19:05:00,40.5,31.1,30.05,West,273,10.0,14.0,69,0.00,,---,0.00,VWS V14.01,2013-03-10 02:05:00,
2013-03-09 19:08:00,40.3,31.0,30.05,WNW,283,8.0,8.0,69,0.00,,---,0.00,VWS V14.01,2013-03-10 02:08:00,
2013-03-09 19:10:00,40.3,31.0,30.05,WNW,284,7.0,14.0,69,0.00,,---,0.00,VWS V14.01,2013-03-10 02:10:00,
2013-03-09 19:13:00,40.3,31.3,30.05,West,274,9.0,11.0,70,0.00,,---,0.00,VWS V14.01,2013-03-10 02:13:00,
2013-03-09 19:15:00,40.3,31.3,30.05,West,281,10.0,13.0,70,0.00,,---,0.00,VWS V14.01,2013-03-10 02:15:00,
2013-03-09 19:18:00,40.2,31.2,30.06,WNW,287,7.0,8.0,70,0.00,,---,0.00,VWS V14.01,2013-03-10 02:18:00,
2013-03-09 19:20:00,40.2,31.2,30.06,West,277,8.0,12.0,70,0.00,,---,0.00,VWS V14.01,2013-03-10 02:20:00,
2013-03-09 19:23:00,40.2,31.6,30.06,WNW,293,9.0,11.0,71,0.00,,---,0.00,VWS V14.01,2013-03-10 02:23:00,
2013-03-09 19:25:00,40.2,31.2,30.06,West,275,7.0,12.0,70,0.00,,---,0.00,VWS V14.01,2013-03-10 02:25:00,
2013-03-09 19:28:00,40.2,31.6,30.06,WNW,294,6.0,11.0,71,0.00,,---,0.00,VWS V14.01,2013-03-10 02:28:00,
2013-03-09 19:30:00,40.2,31.6,30.06,WNW,296,11.0,13.0,71,0.00,,---,0.00,VWS V14.01,2013-03-10 02:30:00,
2013-03-09 19:33:00,40.2,31.6,30.06,West,280,6.0,8.0,71,0.00,,---,0.00,VWS V14.01,2013-03-10 02:33:00,
2013-03-09 19:35:00,40.2,31.6,30.06,WNW,287,5.0,11.0,71,0.00,,---,0.00,VWS V14.01,2013-03-10 02:35:00,
2013-03-09 19:38:00,40.2,31.9,30.06,WNW,287,5.0,6.0,72,0.00,,---,0.00,VWS V14.01,2013-03-10 02:38:00,
2013-03-09 19:40:00,40.2,31.9,30.06,WNW,288,3.0,8.0,72,0.00,,---,0.00,VWS V14.01,2013-03-10 02:40:00,
2013-03-09 19:43:00,40.2,31.9,30.07,West,281,4.0,7.0,72,0.00,,---,0.00,VWS V14.01,2013-03-10 02:43:00,
2013-03-09 19:45:00,40.2,31.9,30.07,West,279,6.0,9.0,72,0.00,,---,0.00,VWS V14.01,2013-03-10 02:45:00,
2013-03-09 19:48:00,40.3,32.3,30.07,WNW,284,5.0,5.0,73,0.00,,---,0.00,VWS V14.01,2013-03-10 02:48:00,
2013-03-09 19:50:00,40.3,32.3,30.07,WNW,284,3.0,7.0,73,0.00,,---,0.00,VWS V14.01,2013-03-10 02:50:00,
2013-03-09 19:53:00,40.3,32.3,30.07,WNW,297,7.0,7.0,73,0.00,,---,0.00,VWS V14.01,2013-03-10 02:53:00,
2013-03-09 19:55:00,40.3,32.3,30.07,WNW,298,3.0,7.0,73,0.00,,---,0.00,VWS V14.01,2013-03-10 02:55:00,
2013-03-09 19:58:00,40.2,31.9,30.07,WNW,292,4.0,4.0,72,0.00,,---,0.00,VWS V14.01,2013-03-10 02:58:00,
2013-03-09 20:00:00,40.3,32.0,30.07,WNW,292,2.0,7.0,72,0.00,,---,0.00,VWS V14.01,2013-03-10 03:00:00,
2013-03-09 20:03:00,40.0,32.1,30.08,WNW,291,5.0,5.0,73,0.00,,---,0.00,VWS V14.01,2013-03-10 03:03:00,
2013-03-09 20:05:00,40.1,32.2,30.08,WNW,292,2.0,4.0,73,0.00,,---,0.00,VWS V14.01,2013-03-10 03:05:00,
2013-03-09 20:08:00,39.9,32.0,30.07,WNW,284,0.0,0.0,73,0.00,,---,0.00,VWS V14.01,2013-03-10 03:08:00,
2013-03-09 20:10:00,39.9,32.0,30.07,WNW,284,0.0,6.0,73,0.00,,---,0.00,VWS V14.01,2013-03-10 03:10:00,
2013-03-09 20:13:00,39.7,32.1,30.08,WNW,284,0.0,0.0,74,0.00,,---,0.00,VWS V14.01,2013-03-10 03:13:00,
2013-03-09 20:15:00,39.7,32.1,30.08,WNW,284,0.0,4.0,74,0.00,,---,0.00,VWS V14.01,2013-03-10 03:15:00,
2013-03-09 20:18:00,39.6,32.0,30.08,WNW,284,0.0,0.0,74,0.00,,---,0.00,VWS V14.01,2013-03-10 03:18:00,
2013-03-09 20:20:00,39.6,32.0,30.08,WNW,284,0.0,0.0,74,0.00,,---,0.00,VWS V14.01,2013-03-10 03:20:00,
2013-03-09 20:23:00,39.5,31.9,30.08,WNW,284,0.0,0.0,74,0.00,,---,0.00,VWS V14.01,2013-03-10 03:23:00,
2013-03-09 20:25:00,39.5,31.9,30.08,WNW,284,0.0,2.0,74,0.00,,---,0.00,VWS V14.01,2013-03-10 03:25:00,
2013-03-09 20:28:00,39.4,31.8,30.08,WNW,284,0.0,0.0,74,0.00,,---,0.00,VWS V14.01,2013-03-10 03:28:00,
2013-03-09 20:30:00,39.4,31.8,30.08,WNW,284,0.0,0.0,74,0.00,,---,0.00,VWS V14.01,2013-03-10 03:30:00,
2013-03-09 20:33:00,39.3,32.0,30.08,WNW,284,0.0,0.0,75,0.00,,---,0.00,VWS V14.01,2013-03-10 03:33:00,
2013-03-09 20:35:00,39.3,32.0,30.08,WNW,284,0.0,0.0,75,0.00,,---,0.00,VWS V14.01,2013-03-10 03:35:00,
2013-03-09 20:38:00,39.2,32.0,30.08,WNW,284,0.0,0.0,75,0.00,,---,0.00,VWS V14.01,2013-03-10 03:38:00,
2013-03-09 20:40:00,39.2,32.0,30.08,WNW,284,0.0,0.0,75,0.00,,---,0.00,VWS V14.01,2013-03-10 03:40:00,
2013-03-09 20:43:00,39.2,32.0,30.08,WNW,286,0.0,1.0,75,0.00,,---,0.00,VWS V14.01,2013-03-10 03:43:00,
2013-03-09 20:45:00,39.1,31.9,30.08,WNW,286,1.0,3.0,75,0.00,,---,0.00,VWS V14.01,2013-03-10 03:45:00,
2013-03-09 20:48:00,39.3,32.0,30.09,NW,305,3.0,4.0,75,0.00,,---,0.00,VWS V14.01,2013-03-10 03:48:00,
2013-03-09 20:50:00,39.3,32.0,30.08,NW,304,2.0,4.0,75,0.00,,---,0.00,VWS V14.01,2013-03-10 03:50:00,
2013-03-09 20:53:00,39.5,32.2,30.09,NNW,329,0.0,1.0,75,0.00,,---,0.00,VWS V14.01,2013-03-10 03:53:00,
2013-03-09 20:55:00,39.5,32.2,30.09,NNW,329,1.0,5.0,75,0.00,,---,0.00,VWS V14.01,2013-03-10 03:55:00,
2013-03-09 20:58:00,39.6,32.3,30.09,NNW,341,0.0,2.0,75,0.00,,---,0.00,VWS V14.01,2013-03-10 03:58:00,
2013-03-09 21:00:00,39.7,32.4,30.09,NNW,341,2.0,5.0,75,0.00,,---,0.00,VWS V14.01,2013-03-10 04:00:00,
2013-03-09 21:03:00,39.7,32.4,30.08,NNW,342,2.0,3.0,75,0.00,,---,0.00,VWS V14.01,2013-03-10 04:03:00,
2013-03-09 21:05:00,39.7,32.4,30.08,NNW,341,3.0,4.0,75,0.00,,---,0.00,VWS V14.01,2013-03-10 04:05:00,
2013-03-09 21:08:00,39.8,32.5,30.08,NNW,344,4.0,4.0,75,0.00,,---,0.00,VWS V14.01,2013-03-10 04:08:00,
2013-03-09 21:10:00,39.8,32.5,30.09,NNW,344,2.0,4.0,75,0.00,,---,0.00,VWS V14.01,2013-03-10 04:10:00,
2013-03-09 21:13:00,39.8,32.5,30.09,NNW,343,4.0,4.0,75,0.00,,---,0.00,VWS V14.01,2013-03-10 04:13:00,
2013-03-09 21:15:00,39.8,32.5,30.09,NNW,344,1.0,4.0,75,0.00,,---,0.00,VWS V14.01,2013-03-10 04:15:00,
2013-03-09 21:18:00,39.8,32.5,30.09,North,349,1.0,2.0,75,0.00,,---,0.00,VWS V14.01,2013-03-10 04:18:00,
2013-03-09 21:20:00,39.8,32.5,30.09,North,349,2.0,5.0,75,0.00,,---,0.00,VWS V14.01,2013-03-10 04:20:00,
2013-03-09 21:23:00,39.7,32.4,30.08,North,360,1.0,2.0,75,0.00,,---,0.00,VWS V14.01,2013-03-10 04:23:00,
2013-03-09 21:25:00,39.7,32.4,30.08,North,360,2.0,5.0,75,0.00,,---,0.00,VWS V14.01,2013-03-10 04:25:00,
2013-03-09 21:28:00,39.7,32.4,30.09,North,360,4.0,4.0,75,0.00,,---,0.00,VWS V14.01,2013-03-10 04:28:00,
2013-03-09 21:30:00,39.7,32.4,30.09,North,360,1.0,4.0,75,0.00,,---,0.00,VWS V14.01,2013-03-10 04:30:00,
2013-03-09 21:33:00,39.5,32.6,30.09,North,360,0.0,0.0,76,0.00,,---,0.00,VWS V14.01,2013-03-10 04:33:00,
2013-03-09 21:35:00,39.6,32.7,30.08,North,360,0.0,4.0,76,0.00,,---,0.00,VWS V14.01,2013-03-10 04:35:00,
2013-03-09 21:38:00,39.4,32.5,30.09,North,360,0.0,0.0,76,0.00,,---,0.00,VWS V14.01,2013-03-10 04:38:00,
2013-03-09 21:40:00,39.4,32.5,30.08,North,360,0.0,3.0,76,0.00,,---,0.00,VWS V14.01,2013-03-10 04:40:00,
2013-03-09 21:43:00,39.1,32.2,30.09,North,360,0.0,0.0,76,0.00,,---,0.00,VWS V14.01,2013-03-10 04:43:00,
2013-03-09 21:45:00,39.2,32.3,30.08,North,360,0.0,2.0,76,0.00,,---,0.00,VWS V14.01,2013-03-10 04:45:00,
2013-03-09 21:48:00,38.9,32.0,30.09,North,360,0.0,0.0,76,0.00,,---,0.00,VWS V14.01,2013-03-10 04:48:00,
2013-03-09 21:50:00,38.9,32.0,30.09,North,360,0.0,0.0,76,0.00,,---,0.00,VWS V14.01,2013-03-10 04:50:00,
2013-03-09 21:53:00,38.7,32.1,30.09,North,360,0.0,0.0,77,0.00,,---,0.00,VWS V14.01,2013-03-10 04:53:00,
2013-03-09 21:55:00,38.7,32.1,30.09,North,360,0.0,0.0,77,0.00,,---,0.00,VWS V14.01,2013-03-10 04:55:00,
2013-03-09 21:58:00,38.5,31.9,30.09,North,360,0.0,0.0,77,0.00,,---,0.00,VWS V14.01,2013-03-10 04:58:00,
2013-03-09 22:00:00,38.5,31.9,30.09,North,360,0.0,0.0,77,0.00,,---,0.00,VWS V14.01,2013-03-10 05:00:00,
2013-03-09 22:05:00,38.2,32.0,30.09,North,360,0.0,0.0,78,0.00,,---,0.00,VWS V14.01,2013-03-10 05:05:00,
2013-03-09 22:10:00,38.2,32.0,30.09,North,360,0.0,0.0,78,0.00,,---,0.00,VWS V14.01,2013-03-10 05:10:00,
2013-03-09 22:15:00,38.2,32.3,30.09,North,360,0.0,0.0,79,0.00,,---,0.00,VWS V14.01,2013-03-10 05:15:00,
2013-03-09 22:20:00,38.2,32.3,30.09,North,360,0.0,0.0,79,0.00,,---,0.00,VWS V14.01,2013-03-10 05:20:00,
2013-03-09 22:25:00,38.3,32.4,30.09,North,360,0.0,0.0,79,0.00,,---,0.00,VWS V14.01,2013-03-10 05:25:00,
2013-03-09 22:30:00,38.3,32.4,30.09,North,360,0.0,0.0,79,0.00,,---,0.00,VWS V14.01,2013-03-10 05:30:00,
2013-03-09 22:35:00,38.4,32.5,30.09,North,360,0.0,0.0,79,0.00,,---,0.00,VWS V14.01,2013-03-10 05:35:00,
2013-03-09 22:40:00,38.5,32.6,30.09,North,360,0.0,0.0,79,0.00,,---,0.00,VWS V14.01,2013-03-10 05:40:00,
2013-03-09 22:45:00,38.5,32.6,30.09,North,360,0.0,0.0,79,0.00,,---,0.00,VWS V14.01,2013-03-10 05:45:00,
2013-03-09 22:50:00,38.5,32.6,30.09,North,360,0.0,0.0,79,0.00,,---,0.00,VWS V14.01,2013-03-10 05:50:00,
2013-03-09 22:55:00,38.5,32.6,30.09,North,360,0.0,0.0,79,0.00,,---,0.00,VWS V14.01,2013-03-10 05:55:00,
2013-03-09 23:00:00,38.5,32.6,30.08,North,360,0.0,0.0,79,0.00,,---,0.00,VWS V14.01,2013-03-10 06:00:00,
2013-03-09 23:05:00,38.4,32.5,30.08,North,360,2.0,3.0,79,0.00,,---,0.00,VWS V14.01,2013-03-10 06:05:00,
2013-03-09 23:10:00,38.3,32.4,30.08,North,360,0.0,1.0,79,0.00,,---,0.00,VWS V14.01,2013-03-10 06:10:00,
2013-03-09 23:15:00,38.2,32.3,30.08,North,360,0.0,0.0,79,0.00,,---,0.00,VWS V14.01,2013-03-10 06:15:00,
2013-03-09 23:20:00,38.2,32.6,30.08,North,360,0.0,0.0,80,0.00,,---,0.00,VWS V14.01,2013-03-10 06:20:00,
2013-03-09 23:25:00,38.3,32.7,30.08,North,360,0.0,0.0,80,0.00,,---,0.00,VWS V14.01,2013-03-10 06:25:00,
2013-03-09 23:30:00,38.4,32.8,30.08,North,360,0.0,0.0,80,0.00,,---,0.00,VWS V14.01,2013-03-10 06:30:00,
2013-03-09 23:35:00,38.4,32.8,30.08,North,360,0.0,0.0,80,0.00,,---,0.00,VWS V14.01,2013-03-10 06:35:00,
2013-03-09 23:40:00,38.3,32.7,30.08,North,360,0.0,0.0,80,0.00,,---,0.00,VWS V14.01,2013-03-10 06:40:00,
2013-03-09 23:45:00,38.2,32.9,30.08,North,360,0.0,0.0,81,0.00,,---,0.00,VWS V14.01,2013-03-10 06:45:00,
2013-03-09 23:50:00,38.2,32.9,30.09,North,360,0.0,0.0,81,0.00,,---,0.00,VWS V14.01,2013-03-10 06:50:00,
2013-03-09 23:55:00,38.1,32.8,30.09,North,360,0.0,0.0,81,0.00,,---,0.00,VWS V14.01,2013-03-10 06:55:00,